www.pogodaiklimat.ru

Погода и климат >> Архив погоды >> Россия >> Краснодарский край >> Белая Глина


ПОГОДА в Белой Глине

  • Прогноз погоды в Белой Глине
  • Монитор погоды в Белой Глине
  • Климат города

АРХИВ ПОГОДЫ в Белой Глине

Время (UTC), дата Ветер
(напр.,м/с)
 
Видим.   Явления Облачность Т
(С)
Тd
(С)
f
(%)
Тe
(С)
Тes
(С)
Комфортность P
(гПа)
Po
(гПа)
Тmin
(С)
Tmax
(С)
R
(мм)
R24
(мм)
S
(см)
18 12.07 штиль 0 10 км 3/0
[Ci sp]
+28.2 +13.0 39 +30 +30 жарко 1007.4 999.6
21 12.07 СЗ 1 10 км ясно +25.3 +13.9 49 +28 +28 жарко 1007.6 999.7
00 13.07 СЗ 1 н/о н/о +23.9 +14.5 56 +27 +27 жарко 1007.9 1000.0
03 13.07 СЗ 1 10 км 3/0
[Ci sp]
+23.5 +15.6 61 +27 +28 душно 1008.0 1000.0 +21.7
06 13.07 С 1 10 км 4/0
[Ci sp]
+31.0 +14.1 36 +33 +44 душно 1007.8 1000.0
09 13.07 СВ 2 10 км 3/3 2000 м
[Cu hum]
+33.7 +10.9 25 +33 +46 жарко 1007.1 999.5
12 13.07 СЗ 2 10 км 8/8 2000 м
[Cu med, cong]
+35.3 +9.6 21 +34 +37 очень
жарко
1006.0 998.4
15 13.07 СЗ 2 10 км 3/3 2000 м
[Cu med, cong]
+35.0 +8.9 20 +33 +35 жарко 1005.2 997.6 +35.8
18 13.07 ЮЗ 1 10 км 4/0
[Ac cast]
+27.0 +12.2 40 +28 +28 жарко 1006.1 998.3
21 13.07 З 1 10 км ясно +23.9 +11.5 46 +25 +25 комфорт 1005.9 998.0
00 14.07 З 1 10 км ясно +21.7 +13.4 59 +24 +24 комфорт 1005.3 997.3
03 14.07 ЮЗ 1 10 км 6/0
[Ci fib]
+22.8 +16.0 65 +27 +28 душно 1005.0 997.1 +20.2
06 14.07 Ю 1 10 км ясно +32.6 +12.6 30 +33 +45 жарко 1004.2 996.5
09 14.07 В 3
{12}
10 км 8/8 2000 м
[Cu med, cong]
+33.7 +10.8 25 +33 +36 жарко 1003.7 996.0
12 14.07 Ю 5-11
{21}
10 км {гроза, ливн. осадки} 4/4 1500 м
[Cu med, cong]
+31.4 +13.9 35 +33 +37 жарко 1002.3 994.6
15 14.07 С 1
{11}
10 км {гроза, ливн. осадки} 9/3 600 м
[Cb cap Ac cuf Cc]
+28.9 +20.0 59 +35 +36 очень
душно
1001.7 994.0 +34.4 13
18 14.07 З 5
{13}
4000 м гроза, ливневой дождь 10/10 300 м
[Cb cap]
+22.1 +16.8 72 +26 +26 душно 1003.7 995.7
21 14.07 СВ 3
{10}
10 км в посл. час гроза {ливн. осадки} 10/4 600 м
[Cb cap Ac lent]
+21.7 +15.0 66 +25 +25 комфорт 1002.5 994.5
00 15.07 ЮЗ 2 10 км {гроза, ливн. осадки} ясно +19.8 +15.4 76 +23 +23 комфорт 1004.1 996.1
03 15.07 ЮЗ 1 10 км 8/0
[Ac cast Ci]
+20.5 +16.7 79 +25 +26 комфорт 1003.3 995.4 +19.8 1
06 15.07 ЮЗ 2 10 км 10/0
[Ac lent]
+24.5 +18.6 70 +29 +31 душно 1003.0 995.2
09 15.07 З 2 10 км 10/0
[Ac lent]
+27.7 +18.7 58 +33 +36 очень
душно
1003.1 995.4
12 15.07 ЮЗ 2 10 км 10/6 600 м
[Cb cap Ac lent]
+30.1 +15.7 42 +33 +34 душно 1002.4 994.7
15 15.07 В 1
{10}
10 км {гроза} 10/6 600 м
[Cb cap Ac lent]
+24.0 +16.6 63 +27 +28 жарко 1002.4 994.5 +31.2
18 15.07 Ю 3 4000 м гроза, ливневой дождь 10/10 300 м
[Cb cap]
+19.3 +17.3 88 +21 +21 комфорт 1005.1 997.1
21 15.07 З 4 4000 м слабый ливневой дождь {гроза} 10/10 300 м
[Cb cap]
+19.4 +17.6 89 +21 +21 комфорт 1004.9 996.9
00 16.07 ЮЗ 5 10 км {гроза, ливн. осадки} 10/0
[Ac lent]
+18.7 +16.0 84 +19 +19 1004.5 996.5
03 16.07 З 2 4000 м слабый ливневой дождь 10/6 300 м
[Cb cap Ac lent]
+18.1 +16.4 90 +19 +19 1004.7 996.6 +18.0 17
06 16.07 ЮЗ 4 4000 м гроза, ливневой дождь 10/10 300 м
[Cb cap]
+17.9 +16.7 93 +18 +18 1004.8 996.7 +17.5
09 16.07 Ю 4 10 км в посл. час ливневой дождь {гроза} 10/6 300 м
[Cb cap Ac lent]
+19.8 +17.2 85 +22 +23 комфорт 1004.4 996.4
12 16.07 ЮЗ 4 10 км {гроза, ливн. осадки} 10/3 300 м
[Cb cap Ac lent]
+24.1 +16.5 63 +28 +29 душно 1003.5 995.6
15 16.07 ЮЗ 4
{11}
10 км 8/0
[Cs]
+24.2 +16.3 61 +28 +29 душно 1003.7 995.8 +26.6 22
18 16.07 ЮЗ 3 10 км 3/0
[Ci sp]
+21.0 +16.1 74 +25 +25 комфорт 1004.7 996.8
21 16.07 ЮЗ 3 10 км ясно +20.0 +16.2 79 +23 +23 комфорт 1004.4 996.4
00 17.07 ЮЗ 5 10 км ясно +19.6 +16.2 81 +22 +22 комфорт 1004.7 996.7
03 17.07 ЮЗ 4 10 км 3/0
[Ci sp]
+19.1 +15.5 80 +20 +21 1004.5 996.5 +18.7
06 17.07 ЮЗ 5
{10}
10 км 8/0
[Ac lent Cc]
+23.7 +16.6 64 +27 +30 жарко 1004.6 996.7
09 17.07 ЮЗ 5
{14}
10 км 9/3 1500 м
[Cu med, cong Ac lent Cc]
+24.5 +14.2 53 +27 +31 жарко 1004.1 996.2
12 17.07 ЮЗ 7-13
{13}
10 км 4/0
[Ac lent]
+26.4 +16.0 53 +30 +32 душно 1004.8 997.0
15 17.07 ЮЗ 6-10
{15}
10 км 3/0
[Ac trans]
+25.9 +15.8 54 +29 +30 душно 1004.5 996.7 +26.7
18 17.07 ЮЗ 3
{11}
10 км 3/0
[Ci sp]
+22.5 +16.6 69 +27 +27 душно 1005.1 997.2
21 17.07 ЮЗ 4 10 км ясно +20.8 +15.9 74 +24 +24 комфорт 1005.2 997.2
00 18.07 ЮЗ 4 10 км ясно +20.2 +16.2 78 +23 +23 комфорт 1004.8 996.8
03 18.07 ЮЗ 3 10 км ясно +20.4 +16.2 77 +24 +25 комфорт 1005.1 997.1 +19.7
06 18.07 ЮЗ 4
{10}
10 км 4/0
[Ac cast]
+25.5 +17.1 60 +29 +34 душно 1004.8 997.0
09 18.07 ЮЗ 5
{11}
10 км 8/5 600 м
[Cb cap Ci sp]
+28.1 +15.3 46 +31 +35 душно 1004.5 996.8
12 18.07 ЮЗ 4
{11}
10 км 6/4 1000 м
[Cu med, cong Ac cast]
+28.9 +14.5 41 +31 +35 жарко 1003.8 996.0
15 18.07 З 4 10 км 3/3 1500 м
[Cu hum]
+29.5 +12.8 36 +31 +32 жарко 1003.8 996.1 +30.4
18 18.07 З 2 10 км ясно +23.2 +15.5 62 +27 +27 душно 1004.1 996.2
21 18.07 штиль 0 10 км 8/3 600 м
[Cb cap Ci sp]
+21.7 +16.5 72 +26 +26 душно 1003.9 996.0
00 19.07 штиль 0 10 км 3/0
[Ci fib]
+20.6 +17.1 80 +24 +24 комфорт 1004.0 996.0
03 19.07 З 1 10 км 8/0
[Ci sp]
+20.7 +17.2 80 +25 +26 комфорт 1004.0 996.0 +19.6
06 19.07 СВ 1 10 км 8/0
[Ac trans]
+28.1 +16.1 48 +31 +38 душно 1003.4 995.6
09 19.07 СВ 1 10 км 10/3 1000 м
[Cu med, cong Ac und]
+28.3 +15.1 45 +31 +35 душно 1003.2 995.5
12 19.07 ЮЗ 3 10 км 10/4 1500 м
[Cu med, cong Ac lent]
+31.4 +13.4 33 +32 +34 жарко 1002.8 995.2

 

Местоположение метеостанции Белая Глина (Краснодарский край, Россия): широта 46.08 долгота 40.88 высота над уровнем моря 69 м.

В архиве по умолчанию представлена погода в Белой Глине за последнюю неделю. Архивные данные за месяц целиком и за предыдущие месяцы, начиная с января 2011 года, Вы можете получить, выбрав интересующий диапазон дат из раскрывающегося списка и нажав кнопку "Ввод!".


*Определитесь, кто Вы:
робот инопланетянин человек

Внимание! Время в таблицах - всемирное. Для получения местного времени необходимо прибавить поправку, которая в Белой Глине равна 3 ч.

Смотрите также архив погоды в соседних городах и на ближайших метеорологических станциях:

Погода в Красногвардейском (Ставропольский край, Россия) (54 км)
Погода в Гиганте (Ростовская область, Россия) (61 км)
Погода в Тихорецке (Краснодарский край, Россия) (67 км)
Погода в Новоалександровске (Ставропольский край, Россия) (69 км)
Погода в Кропоткине (Краснодарский край, Россия) (76 км)
Погода в Сосыке (Краснодарский край, Россия) (81 км)
Погода в Городовиковске (Калмыкия, Россия) (84 км)
Погода в Зерноград (Ростовская область, Россия) (96 км)
Погода в Изобильном (Ставропольский край, Россия) (101 км)
Погода в Кущевской (Краснодарский край, Россия) (109 км)

Пояснения к столбцам:

Ветер - указаны скорость ветра в м/с - средняя за 10 мин, порывы в срок и между сроками (в фигурных скобках) и направление, откуда дует ветер: С - северный, СВ - северо-восточный, В - восточный, ЮВ - юго-восточный, Ю - южный, ЮЗ - юго-западный, З - западный, СЗ - северо-западный.
Видимость - горизонтальная дальность видимости в метрах или километрах. При видимости от 1 до 10 км при отсутствии осадков обычно наблюдается дымка, при ухудшении видимости до 1 км и менее - туман. В сухую погоду видимость может ухудшаться дымом, пылью или мглою.
Явления - указаны атмосферные явления, наблюдавшиеся в срок или в последний час перед сроком; фигурными скобками обозначены явления, наблюдавшиеся между сроками (за 1-3 часа до срока); квадратными скобками обозначены град или гололедные отложения с указанием их диаметра в мм.
Облачность - указаны через наклонную черту общая и нижняя облачность в баллах и высота нижней границы облаков в метрах; квадратными скобками обозначены формы облаков: Ci - перистые, Cs - перисто-слоистые, Cc - перисто-кучевые, Ac - высококучевые, As - высокослоистые, Sc - слоисто-кучевые, Ns - слоисто-дождевые, Cu - кучевые, Cb - кучево-дождевые. Подробнее классификацию облаков см. в Атласе облаков (PDF).
T - Температура воздуха - температура, измеренная на высоте 2 м над землей.
Td - Температура точки росы - температура, при понижении до которой содержащийся в воздухе водяной пар достигнет насыщения.
f - Относительная влажность воздуха - влажноcть воздуха, измеренная на высоте 2 м над землей.
Te - Эффективная температура - температура, которую ощущает одетый по сезону человек в тени. Характеристика душности погоды. При расчете учитывается влияние влажности воздуха и скорости ветра на теплоощущения человека.
Tes - Эффективная температура на солнце - температура, которую ощущает человек, с поправкой на солнечный нагрев. Характеристика знойности погоды. Зависит от высоты солнца над горизонтом, облачности и скорости ветра. Ночью, в пасмурную погоду, а также при ветре 12 м/с и более поправка равна нулю.
P - Атмосферное давление - приведенное к уровню моря атмосферное давление.
Po - Атмосферное давление - измеренное на уровне метеостанции атмосферное давление.
Tmin - Минимальная температура - минимум температуры воздуха на высоте 2 м над землей.
Tmax - Максимальная температура - максимум температуры воздуха на высоте 2 м над землей.
R - Количество осадков - Количество выпавших осадков за период времени, мм. При наведении курсора мыши на число - период времени, за который выпало указанное количество осадков.
R24 - Количество осадков - Количество выпавших осадков за 24 часа, мм.
S - Снежный покров - Высота снежного покрова, см. При наведении курсора мыши на число - состояние снежного покрова и степень покрытия местности в баллах.